This demonstration page uses our WeatherBlox Daily Observations layout. Learn more.

Left ArrowRight Arrow

38.20091, -84.87328

Hourly Observations for April 1, 2020

Temp ( °F °C ) Dew Point ( °F °C ) Humidity (%) Winds ( mph kmh ) Pressure ( in mb ) Visibility ( mi km ) Precip ( " mm )
12:18 am 00:18 Cloudy 42 5.6 37 2.8 82 82 VRB 6 9 29.92 1013 10 16 0.00 0.00
12:53 am 00:53 Cloudy 42 5.6 37 2.8 82 82 NW 8 13 29.91 1013 10 16 0.00 0.00
1:53 am 01:53 Cloudy 42 5.6 37 2.8 82 82 NW 8 13 29.91 1013 10 16 0.00 0.00
2:53 am 02:53 Cloudy 42 5.6 37 2.8 82 82 NW 8 13 29.90 1013 10 16 0.00 0.00
3:33 am 03:33 Cloudy 42 5.6 37 2.8 82 82 NW 7 11 29.92 1013 10 16 0.00 0.00
3:53 am 03:53 Cloudy 42 5.6 37 2.8 82 82 NW 9 15 29.90 1013 10 16 0.00 0.00
4:28 am 04:28 Cloudy 42 5.6 37 2.8 82 82 NW 8 13 29.92 1013 10 16 0.00 0.00
4:53 am 04:53 Cloudy 42 5.6 37 2.8 82 82 NW 8 13 29.90 1013 10 16 0.00 0.00
5:40 am 05:40 Cloudy 42 5.6 38 3.3 85 85 NNW 6 9 29.93 1014 10 16 0.00 0.00
5:53 am 05:53 Cloudy 42 5.6 37 2.8 82 82 NNW 9 15 29.91 1013 10 16 0.00 0.00
6:53 am 06:53 Cloudy 42 5.6 38 3.3 85 85 NW 7 11 29.94 1014 10 16 0.00 0.00
7:23 am 07:23 Cloudy 42 5.6 37 2.8 82 82 NNW 7 11 29.96 1015 10 16 0.00 0.00
7:53 am 07:53 Cloudy 43 6.1 37 2.8 80 80 NW 5 7 29.96 1015 10 16 0.00 0.00
8:36 am 08:36 Cloudy 43 6.1 38 3.3 82 82 NW 6 9 29.99 1016 10 16 0.00 0.00
8:53 am 08:53 Cloudy 43 6.1 38 3.3 82 82 NW 8 13 29.98 1015 10 16 0.00 0.00
9:30 am 09:30 Hazy 44 6.7 38 3.3 79 79 NW 7 11 30.00 1016 5 8 0.00 0.00
9:53 am 09:53 undefined 45 7.2 38 3.3 77 77 N 7 11 29.99 1016 N/A 0.00 0.00
10:00 am 10:00 Cloudy 45 7.2 38 3.3 77 77 undefined N/A 30.01 1016 N/A 0.00 0.00
10:53 am 10:53 Cloudy 47 8.3 37 2.8 69 69 NW 8 13 30.01 1016 10 16 0.00 0.00
11:53 am 11:53 Cloudy 48 8.9 36 2.2 63 63 NW 9 15 30.03 1017 10 16 0.00 0.00
12:53 pm 12:53 Cloudy 50 10 36 2.2 59 59 VRB 5 7 30.02 1017 10 16 0.00 0.00
1:53 pm 13:53 Cloudy 51 10.6 36 2.2 56 56 NNW 5 7 30.02 1017 10 16 0.00 0.00
2:53 pm 14:53 Cloudy 54 12.2 37 2.8 53 53 VRB 3 6 30.01 1016 10 16 0.00 0.00
3:53 pm 15:53 Cloudy 53 11.7 36 2.2 52 52 W 3 6 30.01 1016 10 16 0.00 0.00
4:53 pm 16:53 Cloudy 53 11.7 37 2.8 55 55 VRB 6 9 30.01 1016 10 16 0.00 0.00
5:53 pm 17:53 Cloudy 53 11.7 37 2.8 55 55 NNW 8 13 30.02 1017 10 16 0.00 0.00
6:53 pm 18:53 Cloudy 53 11.7 36 2.2 52 52 NNW 6 9 30.03 1017 10 16 0.00 0.00
7:53 pm 19:53 Cloudy 51 10.6 36 2.2 56 56 WNW 5 7 30.05 1018 10 16 0.00 0.00
8:53 pm 20:53 Cloudy 50 10 38 3.3 63 63 W 3 6 30.06 1018 10 16 0.00 0.00
9:53 pm 21:53 Cloudy 50 10 38 3.3 63 63 Calm 30.08 1019 10 16 0.00 0.00
10:53 pm 22:53 Cloudy 45 7.2 39 3.9 80 80 Calm 30.09 1019 10 16 0.00 0.00
11:53 pm 23:53 Cloudy 44 6.7 38 3.3 79 79 Calm 30.09 1019 10 16 0.00 0.00

Powered by AerisWeather